Omaha, NE

2:18 PM CST on January 21, 2017 (GMT -0600)
Blair

Weather History for KBTA - November, 2013

Change the Weather History Date:

Monday, November 4, 2013

  Actual Average (KOMA) Record (KOMA)
Temperature  
Mean Temperature 47 °F -  
Max Temperature 55 °F 52 °F 76 °F (1909)
Min Temperature 39 °F 31 °F 3 °F (1991)
Degree Days  
Heating Degree Days 18    
Moisture  
Dew Point 37 °F    
Average Humidity 62    
Maximum Humidity 79    
Minimum Humidity 46    
Precipitation  
Precipitation 0.06 in - - ()
Sea Level Pressure  
Sea Level Pressure 29.94 in    
Wind  
Wind Speed 12 mph (ENE)    
Max Wind Speed 20 mph    
Max Gust Speed 26 mph    
Visibility 10 miles    
Events      
Averages and records for this station are not official NWS values.
T = Trace of Precipitation, MM = Missing Value Source: NWS Daily Summary

Daily Weather History Graph

Daily Weather History Graph

Search for Another Location

Airport or City:

Trip Planner

Search our weather history database for the weather conditions in past years. The results will help you decide how hot, cold, wet, or windy it might be!

Date:

Astronomy

Nov. 04, 2013 Rise Set
Actual Time 6:59 AM CST 5:15 PM CST
Civil Twilight 6:30 AM CST 5:44 PM CST
Nautical Twilight 5:58 AM CST 6:17 PM CST
Astronomical Twilight 5:25 AM CST 6:49 PM CST
Moon 8:12 AM CST (11/4) 6:20 PM CST (11/4)
Length of Visible Light 11h 13m
Length of Day
10h 15m
New Moon, 2% of the Moon is Illuminated
Nov 4
New Moon
Nov 9
First Quarter
Nov 17
Full
Nov 25
Last Quarter
Dec 2
New

Hourly Weather History & Observations

Time (CST) Temp. Windchill Dew Point Humidity Pressure Visibility Wind Dir Wind Speed Gust Speed Precip Events Conditions
12:15 AM 51.8 °F - 36.1 °F 55% 29.79 in 10.0 mi SSE 13.8 mph - N/A   Scattered Clouds
12:35 AM 52.0 °F - 36.5 °F 56% 29.79 in 10.0 mi SSE 15.0 mph 19.6 mph N/A   Scattered Clouds
12:55 AM 52.2 °F - 36.5 °F 55% 29.79 in 10.0 mi SSE 16.1 mph 23.0 mph N/A   Scattered Clouds
1:15 AM 51.8 °F - 36.7 °F 56% 29.78 in 10.0 mi SSE 16.1 mph 21.9 mph N/A   Clear
1:35 AM 51.8 °F - 37.0 °F 57% 29.78 in 10.0 mi SSE 15.0 mph 19.6 mph N/A   Scattered Clouds
1:55 AM 51.4 °F - 37.4 °F 59% 29.79 in 10.0 mi SSE 12.7 mph - N/A   Scattered Clouds
2:15 AM 50.9 °F - 37.4 °F 60% 29.79 in 10.0 mi SSE 12.7 mph - N/A   Scattered Clouds
2:35 AM 51.1 °F - 37.8 °F 60% 29.78 in 10.0 mi SSE 15.0 mph - N/A   Mostly Cloudy
2:55 AM 50.9 °F - 38.3 °F 62% 29.78 in 10.0 mi SSE 12.7 mph 19.6 mph N/A   Scattered Clouds
3:15 AM 50.5 °F - 38.5 °F 63% 29.78 in 10.0 mi SSE 12.7 mph - N/A   Clear
3:35 AM 50.0 °F - 38.7 °F 65% 29.78 in 10.0 mi SSE 12.7 mph - N/A   Clear
3:55 AM 49.5 °F - 38.7 °F 66% 29.78 in 10.0 mi SSE 10.4 mph - N/A   Clear
4:15 AM 48.9 °F - 38.7 °F 68% 29.78 in 10.0 mi SSE 10.4 mph - N/A   Clear
4:35 AM 49.3 °F - 39.2 °F 68% 29.78 in 10.0 mi SSE 11.5 mph - N/A   Clear
4:55 AM 49.6 °F - 39.4 °F 68% 29.78 in 10.0 mi SSE 12.7 mph - N/A   Scattered Clouds
5:15 AM 49.6 °F - 39.4 °F 68% 29.78 in 10.0 mi SSE 11.5 mph - N/A   Clear
5:35 AM 49.6 °F - 39.7 °F 69% 29.78 in 10.0 mi SSE 12.7 mph - N/A   Scattered Clouds
5:55 AM 49.5 °F - 39.9 °F 70% 29.78 in 10.0 mi SSE 12.7 mph 18.4 mph N/A   Scattered Clouds
6:15 AM 49.6 °F - 40.1 °F 70% 29.79 in 10.0 mi SSE 10.4 mph - N/A   Scattered Clouds
6:35 AM 49.1 °F - 40.3 °F 72% 29.80 in 10.0 mi SSE 11.5 mph - N/A   Scattered Clouds
6:55 AM 49.5 °F - 40.6 °F 72% 29.81 in 10.0 mi South 11.5 mph - N/A   Mostly Cloudy
7:15 AM 49.5 °F - 41.0 °F 73% 29.81 in 10.0 mi SSE 11.5 mph - N/A   Overcast
7:35 AM 49.3 °F - 41.0 °F 73% 29.81 in 10.0 mi SSE 11.5 mph - N/A   Mostly Cloudy
7:55 AM 49.5 °F - 41.4 °F 74% 29.82 in 10.0 mi South 13.8 mph - N/A   Overcast
8:15 AM 50.0 °F - 41.7 °F 73% 29.84 in 10.0 mi South 13.8 mph - N/A   Overcast
8:35 AM 50.0 °F - 41.9 °F 74% 29.85 in 10.0 mi South 15.0 mph - N/A   Overcast
8:55 AM 50.0 °F - 42.1 °F 74% 29.86 in 10.0 mi South 11.5 mph - N/A   Overcast
9:15 AM 50.0 °F - 42.3 °F 75% 29.88 in 10.0 mi SSW 9.2 mph - N/A   Overcast
9:35 AM 50.2 °F - 42.1 °F 74% 29.90 in 10.0 mi WSW 9.2 mph - N/A   Overcast
9:55 AM 50.0 °F - 41.9 °F 74% 29.90 in 10.0 mi WSW 5.8 mph - N/A   Overcast
10:15 AM 50.4 °F - 41.5 °F 72% 29.91 in 10.0 mi WSW 6.9 mph - N/A   Overcast
10:35 AM 49.8 °F - 39.6 °F 68% 29.91 in 10.0 mi NW 12.7 mph 17.3 mph N/A   Overcast
10:55 AM 50.4 °F - 38.5 °F 64% 29.93 in 10.0 mi NNW 12.7 mph - N/A   Scattered Clouds
11:15 AM 50.7 °F - 36.5 °F 58% 29.94 in 10.0 mi NNW 16.1 mph 21.9 mph N/A   Scattered Clouds
11:35 AM 51.4 °F - 36.7 °F 57% 29.95 in 10.0 mi North 16.1 mph - N/A   Clear
11:55 AM 52.9 °F - 35.8 °F 52% 29.96 in 10.0 mi NNW 17.3 mph 23.0 mph N/A   Clear
12:15 PM 53.4 °F - 35.8 °F 51% 29.96 in 10.0 mi North 15.0 mph 23.0 mph N/A   Clear
12:35 PM 53.8 °F - 35.8 °F 51% 29.96 in 10.0 mi NNW 12.7 mph - N/A   Clear
12:55 PM 53.4 °F - 36.3 °F 52% 29.96 in 10.0 mi NNW 19.6 mph 26.5 mph N/A   Clear
1:15 PM 53.1 °F - 35.8 °F 52% 29.97 in 10.0 mi North 16.1 mph 26.5 mph N/A   Clear
1:35 PM 53.6 °F - 36.5 °F 52% 29.97 in 10.0 mi North 17.3 mph - N/A   Clear
1:55 PM 54.5 °F - 36.3 °F 50% 29.98 in 10.0 mi North 15.0 mph 18.4 mph N/A   Clear
2:15 PM 54.5 °F - 36.1 °F 50% 29.98 in 10.0 mi North 12.7 mph 18.4 mph N/A   Clear
2:35 PM 55.2 °F - 36.5 °F 49% 29.99 in 10.0 mi North 10.4 mph - N/A   Scattered Clouds
2:55 PM 55.4 °F - 36.3 °F 49% 29.99 in 10.0 mi NNW 11.5 mph - N/A   Clear
3:15 PM 54.9 °F - 35.6 °F 48% 30.00 in 10.0 mi North 11.5 mph 16.1 mph N/A   Clear
3:35 PM 54.5 °F - 35.2 °F 48% 30.00 in 10.0 mi NNW 9.2 mph 17.3 mph N/A   Clear
3:55 PM 54.5 °F - 34.0 °F 46% 30.01 in 10.0 mi North 8.1 mph - N/A   Clear
4:15 PM 54.0 °F - 33.6 °F 46% 30.03 in 10.0 mi North 5.8 mph - 0.06 in   Clear
4:35 PM 52.9 °F - 33.3 °F 47% 30.03 in 10.0 mi North 8.1 mph - 0.06 in   Clear
4:55 PM 51.8 °F - 33.3 °F 49% 30.03 in 7.0 mi NNE 5.8 mph - 0.06 in   Clear
5:15 PM 50.9 °F - 32.9 °F 50% 30.04 in 10.0 mi NNE 3.5 mph - N/A   Clear
5:35 PM 49.5 °F - 32.9 °F 53% 30.05 in 10.0 mi NE 3.5 mph - N/A   Clear
5:55 PM 48.9 °F - 32.9 °F 54% 30.06 in 10.0 mi ENE 3.5 mph - N/A   Clear
6:15 PM 48.7 °F - 32.9 °F 54% 30.07 in 10.0 mi Calm Calm - N/A   Clear
6:35 PM 48.2 °F - 32.9 °F 55% 30.08 in 10.0 mi ENE 3.5 mph - N/A   Clear
6:55 PM 45.7 °F - 32.9 °F 61% 30.09 in 10.0 mi Calm Calm - N/A   Clear
7:15 PM 47.3 °F - 33.1 °F 58% 30.09 in 7.0 mi ENE 3.5 mph - N/A   Clear
7:35 PM 46.6 °F - 33.1 °F 59% 30.09 in 10.0 mi NE 4.6 mph - N/A   Clear
7:55 PM 45.0 °F 43.5 °F 32.9 °F 63% 30.10 in 10.0 mi NNE 3.5 mph - N/A   Clear
8:15 PM 45.5 °F 44.2 °F 32.9 °F 61% 30.10 in 10.0 mi NE 3.5 mph - N/A   Clear
8:35 PM 43.7 °F 42.1 °F 32.7 °F 65% 30.11 in 10.0 mi NNE 3.5 mph - N/A   Clear
8:55 PM 44.8 °F 43.3 °F 33.1 °F 64% 30.11 in 10.0 mi ENE 3.5 mph - N/A   Clear
9:15 PM 41.9 °F - 32.9 °F 70% 30.12 in 10.0 mi Calm Calm - N/A   Clear
9:35 PM 44.6 °F 43.1 °F 33.1 °F 64% 30.12 in 10.0 mi NE 3.5 mph - N/A   Clear
9:55 PM 43.5 °F 40.9 °F 32.9 °F 66% 30.13 in 10.0 mi ENE 4.6 mph - N/A   Clear
10:15 PM 42.6 °F 39.9 °F 32.9 °F 68% 30.13 in 7.0 mi NE 4.6 mph - N/A   Clear
10:35 PM 41.0 °F 39.0 °F 32.9 °F 73% 30.13 in 10.0 mi NE 3.5 mph - N/A   Clear
10:55 PM 41.7 °F 38.0 °F 32.9 °F 71% 30.13 in 10.0 mi NNE 5.8 mph - N/A   Clear
11:15 PM 39.7 °F 34.9 °F 33.1 °F 77% 30.13 in 10.0 mi North 6.9 mph - N/A   Clear
11:35 PM 39.7 °F 34.3 °F 33.1 °F 77% 30.13 in 10.0 mi North 8.1 mph - N/A   Clear
11:55 PM 39.0 °F 33.4 °F 32.9 °F 79% 30.13 in 10.0 mi North 8.1 mph - N/A   Clear